Starlink 32173

operational
NORAD ID: 60586 Int'l Des: 2024-150 Owner: SPXS Country: US Constellation: starlink
LEOCIRCULAR

About Starlink 32173

Description loading...

Live Position

Loading 3D Globe...

Upcoming Passes

Altitude History

Altitude vs Time

uPlot chart will show altitude changes over time

Two-Line Element Set

1 60586U 24150D 25260.08364657 -.00001511 00000-0 -38921-4 0 9998
2 60586 53.1616 33.2551 0001019 98.7310 261.3807 15.30180935 61466
Epoch: Sep 17, 2025 • Age: 22 hours

Current Status

Altitude 477.7 km
Velocity 7.63 km/s
Sub-Earth Point 36.14°N, 62.37°E
Launch Date Aug 20, 2024
Age 1 years
Type internet

Technical Details

Classification Payload
Mass 730.00 kg
Dry Mass 700.00 kg
Total Mass 730.00 kg
Length 0.30 m
Diameter 4.10 m
Span 29.00 m
Shape Box + pan
Manufacturer SPXS
Bus Type Starlink V2M
Phase Status In Orbit
Owner/State SPXS/US

Large Constellations

Loading constellations...